User: anonymous   Login
Location: Arbon
(43.0005°N, 0.7472°E)
Time: 05:33:13
(UTC+00:00)
Language:

SL-23 DEB - Orbit

View from above orbital plane
View from above orbital plane
View from above satellite
View from above satellite

Ground track
Ground track

The orbit data is extracted from the following two-line orbital elements,

1 37756U 11037B   20304.21211068  .00000865  00000-0  20811-3 0  9994
2 37756  51.4507   9.1719 1904778 326.3440  22.9446 11.26504197381844
Epoch (UTC): 30 October 2020 05:05:26
Eccentricity: 0.1904778
inclination: 51.4507°
perigee height: 426 km
apogee height: 3629 km
right ascension of ascending node: 9.1719°
argument of perigee: 326.3440°
revolutions per day: 11.26504197
mean anomaly at epoch: 22.9446°
orbit number at epoch: 38184

The dashed part of the orbit path shows where the satellite is in the earth's shadow,  

DLR